Location: Albuquerque Trailhead
(34.7934°N, 106.3736°W)
Time: 01:19:11
(UTC+00:00)

Cosmos 2369 - Pass Details

Date: 20 June 2021
Orbit: 841 x 854 km, 71.0° (Epoch: 27 July)

Event Time Altitude Azimuth Distance (km) Brightness Sun altitude
Rises 11:18:32 0° 341° (NNW) 3,408 7.1 -6.7°
Reaches altitude 10° 11:21:01 10° 344° (NNW) 2,468 6.4 -6.3°
Maximum altitude 11:26:40 69° 68° (ENE) 901 4.2 -5.3°
Drops below altitude 10° 11:32:15 10° 151° (SSE) 2,449 6.1 -4.4°
Sets 11:34:42 0° 154° (SSE) 3,379 6.8 -3.9°
